CW3776 Weather Reports


time (UTC)temp
F
wind
direction
speed
knots
gust
knots
rain 1hr
in
rain 24hr
in
rain mn
in
humidity
%
barometer
mb
20260506015605 65 165 1.7 2.6 0.00 0.00 0.00 78 1018.1
20260506015105 66 132 0.9 4.3 0.00 0.00 0.00 78 1018.2
20260506014605 66 179 2.6 4.3 0.00 0.00 0.00 78 1018.1
20260506014104 66 158 1.7 4.3 0.00 0.00 0.00 78 1017.9
20260506013605 66 151 2.6 6.1 0.00 0.00 0.00 77 1017.9
20260506013105 67 165 2.6 4.3 0.00 0.00 0.00 77 1017.9
20260506012604 67 155 2.6 5.2 0.00 0.00 0.00 77 1017.9
20260506011604 67 168 3.5 6.1 0.00 0.00 0.00 76 1017.7
20260506011105 67 168 4.3 7.0 0.00 0.00 0.00 76 1017.7
20260506010104 68 169 3.5 5.2 0.00 0.00 0.00 75 1017.8
20260506005104 68 168 4.3 7.8 0.00 0.00 0.00 74 1017.6
20260506004604 68 157 4.3 6.1 0.00 0.00 0.00 74 1017.6
20260506004105 68 168 4.3 7.0 0.00 0.00 0.00 73 1017.6
20260506003605 68 156 4.3 6.1 0.00 0.00 0.00 73 1017.6
20260506003104 69 161 4.3 7.0 0.00 0.00 0.00 72 1017.6
20260506002605 69 159 5.2 7.8 0.00 0.00 0.00 72 1017.5
20260506002104 69 164 4.3 7.0 0.00 0.00 0.00 72 1017.6
20260506001623 69 156 6.1 10.4 0.00 0.00 0.00 71 1017.6
20260505235105 70 163 5.2 10.4 0.00 0.00 0.00 67 1017.5
20260505234604 70 175 4.3 7.8 0.00 0.00 0.00 66 1017.5
20260505234104 71 161 6.1 10.4 0.00 0.00 0.00 66 1017.5
20260505233604 71 157 5.2 17.4 0.00 0.00 0.00 65 1017.5
20260505233105 71 169 5.2 10.4 0.00 0.00 0.00 64 1017.4
20260505232604 71 158 6.1 10.4 0.00 0.00 0.00 64 1017.5
20260505231604 72 151 4.3 7.8 0.00 0.00 0.00 64 1017.4
20260505231104 72 171 5.2 7.8 0.00 0.00 0.00 64 1017.5
20260505230604 72 160 6.1 10.4 0.00 0.00 0.00 63 1017.4
20260505230105 72 169 6.1 12.2 0.00 0.00 0.00 63 1017.4
20260505225605 73 186 6.1 11.3 0.00 0.00 0.00 62 1017.4
20260505225105 73 180 6.1 13.0 0.00 0.00 0.00 62 1017.4
20260505224604 73 178 5.2 10.4 0.00 0.00 0.00 62 1017.5
20260505224105 73 138 5.2 12.2 0.00 0.00 0.00 61 1017.5
20260505223605 73 156 5.2 10.4 0.00 0.00 0.00 62 1017.5
20260505223105 73 173 2.6 8.7 0.00 0.00 0.00 61 1017.6
20260505222605 73 165 6.1 10.4 0.00 0.00 0.00 60 1017.5
20260505222105 73 181 5.2 11.3 0.00 0.00 0.00 60 1017.4
20260505221605 74 183 5.2 10.4 0.00 0.00 0.00 62 1017.5
20260505221104 74 161 6.1 13.0 0.00 0.00 0.00 60 1017.5
20260505220605 74 162 7.8 11.3 0.00 0.00 0.00 59 1017.5
20260505220105 75 178 5.2 10.4 0.00 0.00 0.00 58 1017.4
20260505215105 75 176 5.2 10.4 0.00 0.00 0.00 58 1017.5
20260505214605 76 167 5.2 10.4 0.00 0.00 0.00 56 1017.5
20260505213605 76 165 5.2 10.4 0.00 0.00 0.00 56 1017.4
20260505213105 76 163 7.8 13.9 0.00 0.00 0.00 56 1017.5
20260505212604 76 169 4.3 11.3 0.00 0.00 0.00 55 1017.5
20260505212105 76 180 5.2 13.9 0.00 0.00 0.00 54 1017.5
20260505211105 77 174 5.2 10.4 0.00 0.00 0.00 54 1017.6
20260505210604 77 183 5.2 13.9 0.00 0.00 0.00 55 1017.6
20260505210105 77 172 6.1 13.9 0.00 0.00 0.00 54 1017.6
20260505205604 77 175 4.3 8.7 0.00 0.00 0.00 54 1017.5
20260505205105 77 162 8.7 13.0 0.00 0.00 0.00 53 1017.5
20260505204104 77 201 5.2 12.2 0.00 0.00 0.00 55 1017.6
20260505203604 77 180 9.6 17.4 0.00 0.00 0.00 53 1017.6
20260505203104 77 149 6.1 17.4 0.00 0.00 0.00 53 1017.6
20260505202604 78 157 7.8 14.8 0.00 0.00 0.00 52 1017.6
20260505202105 78 172 8.7 18.2 0.00 0.00 0.00 52 1017.5
20260505201605 78 162 7.0 11.3 0.00 0.00 0.00 52 1017.4
20260505201105 78 173 8.7 14.8 0.00 0.00 0.00 52 1017.5
20260505200105 79 151 4.3 13.9 0.00 0.00 0.00 52 1017.6
20260505195604 79 163 6.1 12.2 0.00 0.00 0.00 52 1017.7
20260505195104 79 184 7.8 14.8 0.00 0.00 0.00 50 1017.6
20260505194604 79 163 6.1 13.0 0.00 0.00 0.00 50 1017.6
20260505193604 78 162 6.1 13.0 0.00 0.00 0.00 52 1017.9
20260505193104 78 163 7.8 13.0 0.00 0.00 0.00 51 1018.0
20260505192605 79 163 7.8 15.6 0.00 0.00 0.00 49 1018.0
20260505192105 79 180 4.3 12.2 0.00 0.00 0.00 52 1018.0
20260505191104 78 164 9.6 14.8 0.00 0.00 0.00 50 1018.4
20260505190605 79 168 7.8 14.8 0.00 0.00 0.00 48 1018.4
20260505190105 79 164 7.8 13.0 0.00 0.00 0.00 48 1018.4
20260505185605 79 162 8.7 17.4 0.00 0.00 0.00 52 1018.3
20260505185104 79 154 7.8 11.3 0.00 0.00 0.00 51 1018.4
20260505184604 79 174 8.7 14.8 0.00 0.00 0.00 50 1018.5
20260505184104 79 166 7.8 13.9 0.00 0.00 0.00 51 1018.4
20260505183104 78 148 8.7 12.2 0.00 0.00 0.00 51 1018.4
20260505182604 78 119 6.1 13.9 0.00 0.00 0.00 50 1018.3
20260505182105 79 189 7.8 12.2 0.00 0.00 0.00 50 1018.4
20260505181604 78 154 7.8 13.9 0.00 0.00 0.00 51 1018.3
20260505181105 79 149 7.0 13.9 0.00 0.00 0.00 50 1018.4
20260505180605 79 146 7.8 14.8 0.00 0.00 0.00 49 1018.5
20260505180104 79 170 4.3 10.4 0.00 0.00 0.00 51 1018.5
20260505175104 79 164 7.8 14.8 0.00 0.00 0.00 51 1018.6
20260505174605 79 155 10.4 17.4 0.00 0.00 0.00 51 1018.6
20260505174104 79 173 7.8 13.9 0.00 0.00 0.00 50 1018.7
20260505173604 79 169 4.3 13.9 0.00 0.00 0.00 52 1018.7
20260505172104 79 135 7.0 11.3 0.00 0.00 0.00 51 1018.8
20260505171605 79 134 7.0 12.2 0.00 0.00 0.00 50 1018.9
20260505170605 80 162 4.3 13.0 0.00 0.00 0.00 51 1018.9
20260505165605 79 194 7.0 13.0 0.00 0.00 0.00 51 1019.0
20260505165104 79 165 6.1 11.3 0.00 0.00 0.00 49 1019.0
20260505164604 79 168 5.2 10.4 0.00 0.00 0.00 51 1019.1
20260505164105 79 121 4.3 10.4 0.00 0.00 0.00 51 1019.0
20260505162605 80 154 6.1 12.2 0.00 0.00 0.00 49 1019.2
20260505162104 80 150 7.0 13.0 0.00 0.00 0.00 50 1019.2
20260505161604 79 216 1.7 5.2 0.00 0.00 0.00 53 1019.3
20260505161104 78 168 2.6 8.7 0.00 0.00 0.00 55 1019.3
20260505160605 77 166 6.1 12.2 0.00 0.00 0.00 53 1019.4
20260505160105 77 164 6.1 10.4 0.00 0.00 0.00 54 1019.5
20260505153104 77 143 5.2 8.7 0.00 0.00 0.00 56 1019.6
20260505152604 77 170 5.2 8.7 0.00 0.00 0.00 58 1019.6
20260505152105 76 159 4.3 7.0 0.00 0.00 0.00 57 1019.6
20260505151605 77 168 0.9 5.2 0.00 0.00 0.00 57 1019.5
20260505151105 76 339 1.7 7.8 0.00 0.00 0.00 58 1019.6
20260505150604 76 158 3.5 7.0 0.00 0.00 0.00 57 1019.5
20260505150105 76 172 3.5 10.4 0.00 0.00 0.00 58 1019.5
20260505140605 75 292 1.7 6.1 0.00 0.00 0.00 61 1019.4
20260505140105 74 297 1.7 4.3 0.00 0.00 0.00 62 1019.4
20260505130104 71 174 1.7 5.2 0.00 0.00 0.00 72 1019.2
20260505124605 69 321 0.0 5.2 0.00 0.00 0.00 75 1019.5
20260505124105 68 84 0.9 2.6 0.00 0.00 0.00 76 1019.4
20260505123605 68 182 2.6 4.3 0.00 0.00 0.00 78 1019.3
20260505123105 67 134 0.9 2.6 0.00 0.00 0.00 80 1019.3
20260505121605 64 152 0.0 2.6 0.00 0.00 0.00 86 1019.3
20260505120605 63 154 0.0 1.7 0.00 0.00 0.00 89 1019.3
20260505120105 61 298 0.0 1.7 0.00 0.00 0.00 93 1019.2
20260505115606 59 298 0.0 0.9 0.00 0.00 0.00 93 1019.1